sat.trackr.live / text

‹ back to catalog

STARLINK-3399

NORAD 51121 · 2022-005T

PAYLOAD ACTIVE UNKNOWN

§ Identity

Operator
Country
US
Launch date
2022-01-19
Launch site
AFETR
Launch vehicle
Mass (kg)
RCS (m²)

Purposes: comms

External: N2YO · Heavens-Above · Gunter

§ Orbital elements

Epoch: 2026-09-20T03:38:02.617152Z

Period
95.44 min
Inclination
53.1612°
Eccentricity
0.0001731
Mean motion
15.08829097 rev/d
Perigee alt
538.6 km
Apogee alt
541.0 km
Semi-major
6,917.9 km
B*
4.5294e-5
RAAN
135.4968°
Arg perigee
88.9267°
Mean anomaly
271.1923°
Rev number
25,823

§ Raw data

STARLINK-33991 51121U 22005T   26263.15141918  .00000433  00000+0  45294-4 0  99952 51121  53.1612 135.4968 0001731  88.9267 271.1923 15.08829097258232

JSON: /api/v1/satellites/51121 · /tle

For live sub-satellite position, see the globe view (requires WebGL).

§ Visibility from observer

Set your observer location to see the next 7 days of passes ≥ 10°. The values pass through the URL so the page stays shareable.

No JS? Fill the form by hand. The geolocation button needs JavaScript.